Year,Month,Day,Hour,Minute,Value (Times are PST for temperature in C)
2014,08,18,00,00,16.70
2014,08,18,00,01,16.60
2014,08,18,00,02,16.60
2014,08,18,00,03,16.50
2014,08,18,00,04,16.50
2014,08,18,00,05,16.40
2014,08,18,00,06,16.40
2014,08,18,00,07,16.30
2014,08,18,00,08,16.30
2014,08,18,00,09,16.30
2014,08,18,00,10,16.30
2014,08,18,00,11,16.30
2014,08,18,00,12,16.30
2014,08,18,00,13,16.30
2014,08,18,00,14,16.30
2014,08,18,00,15,16.30
2014,08,18,00,16,16.30
2014,08,18,00,17,16.30
2014,08,18,00,18,16.30
2014,08,18,00,19,16.30
2014,08,18,00,20,16.30
2014,08,18,00,21,16.30
2014,08,18,00,22,16.30
2014,08,18,00,23,16.40
2014,08,18,00,24,16.40
2014,08,18,00,25,16.50
2014,08,18,00,26,16.50
2014,08,18,00,27,16.60
2014,08,18,00,28,16.60
2014,08,18,00,29,16.60
2014,08,18,00,30,16.60
2014,08,18,00,31,16.60
2014,08,18,00,32,16.60
2014,08,18,00,33,16.60
2014,08,18,00,34,16.60
2014,08,18,00,35,16.50
2014,08,18,00,36,16.50
2014,08,18,00,37,16.40
2014,08,18,00,38,16.40
2014,08,18,00,39,16.40
2014,08,18,00,40,16.30
2014,08,18,00,41,16.30
2014,08,18,00,42,16.20
2014,08,18,00,43,16.10
2014,08,18,00,44,16.10
2014,08,18,00,45,16.10
2014,08,18,00,46,16.10
2014,08,18,00,47,16.20
2014,08,18,00,48,16.30
2014,08,18,00,49,16.50
2014,08,18,00,50,16.50
2014,08,18,00,51,16.60
2014,08,18,00,52,16.50
2014,08,18,00,53,16.40
2014,08,18,00,54,16.40
2014,08,18,00,55,16.30
2014,08,18,00,56,16.30
2014,08,18,00,57,16.20
2014,08,18,00,58,16.20
2014,08,18,00,59,16.20
2014,08,18,01,00,16.20
2014,08,18,01,01,16.20
2014,08,18,01,02,16.20
2014,08,18,01,03,16.10
2014,08,18,01,04,16.10
2014,08,18,01,05,16.10
2014,08,18,01,06,16.10
2014,08,18,01,07,16.10
2014,08,18,01,08,16.20
2014,08,18,01,09,16.20
2014,08,18,01,10,16.20
2014,08,18,01,11,16.20
2014,08,18,01,12,16.30
2014,08,18,01,13,16.30
2014,08,18,01,14,16.30
2014,08,18,01,15,16.30
2014,08,18,01,16,16.30
2014,08,18,01,17,16.30
2014,08,18,01,18,16.30
2014,08,18,01,19,16.40
2014,08,18,01,20,16.40
2014,08,18,01,21,16.40
2014,08,18,01,22,16.40
2014,08,18,01,23,16.50
2014,08,18,01,24,16.50
2014,08,18,01,25,16.60
2014,08,18,01,26,16.60
2014,08,18,01,27,16.60
2014,08,18,01,28,16.70
2014,08,18,01,29,16.70
2014,08,18,01,30,16.70
2014,08,18,01,31,16.80
2014,08,18,01,32,16.80
2014,08,18,01,33,16.70
2014,08,18,01,34,16.80
2014,08,18,01,35,16.70
2014,08,18,01,36,16.70
2014,08,18,01,37,16.70
2014,08,18,01,38,16.70
2014,08,18,01,39,16.70
2014,08,18,01,40,16.70
2014,08,18,01,41,16.70
2014,08,18,01,42,16.70
2014,08,18,01,43,16.70
2014,08,18,01,44,16.70
2014,08,18,01,45,16.70
2014,08,18,01,46,16.70
2014,08,18,01,47,16.70
2014,08,18,01,48,16.60
2014,08,18,01,49,16.60
2014,08,18,01,50,16.60
2014,08,18,01,51,16.60
2014,08,18,01,52,16.60
2014,08,18,01,53,16.60
2014,08,18,01,54,16.60
2014,08,18,01,55,16.60
2014,08,18,01,56,16.60
2014,08,18,01,57,16.50
2014,08,18,01,58,16.50
2014,08,18,01,59,16.50
2014,08,18,02,00,16.40
2014,08,18,02,01,16.40
2014,08,18,02,02,16.40
2014,08,18,02,03,16.40
2014,08,18,02,04,16.40
2014,08,18,02,05,16.40
2014,08,18,02,06,16.30
2014,08,18,02,07,16.30
2014,08,18,02,08,16.30
2014,08,18,02,09,16.30
2014,08,18,02,10,16.30
2014,08,18,02,11,16.30
2014,08,18,02,12,16.30
2014,08,18,02,13,16.20
2014,08,18,02,14,16.20
2014,08,18,02,15,16.20
2014,08,18,02,16,16.20
2014,08,18,02,17,16.10
2014,08,18,02,18,16.10
2014,08,18,02,19,16.00
2014,08,18,02,20,16.00
2014,08,18,02,21,15.90
2014,08,18,02,22,15.90
2014,08,18,02,23,15.90
2014,08,18,02,24,15.90
2014,08,18,02,25,15.90
2014,08,18,02,26,15.90
2014,08,18,02,27,16.00
2014,08,18,02,28,16.00
2014,08,18,02,29,16.00
2014,08,18,02,30,16.10
2014,08,18,02,31,16.10
2014,08,18,02,32,16.10
2014,08,18,02,33,16.10
2014,08,18,02,34,16.10
2014,08,18,02,35,16.10
2014,08,18,02,36,16.10
2014,08,18,02,37,16.10
2014,08,18,02,38,16.00
2014,08,18,02,39,16.00
2014,08,18,02,40,16.00
2014,08,18,02,41,15.90
2014,08,18,02,42,15.90
2014,08,18,02,43,15.90
2014,08,18,02,44,15.80
2014,08,18,02,45,15.80
2014,08,18,02,46,15.80
2014,08,18,02,47,15.70
2014,08,18,02,48,15.70
2014,08,18,02,49,15.70
2014,08,18,02,50,15.60
2014,08,18,02,51,15.60
2014,08,18,02,52,15.60
2014,08,18,02,53,15.60
2014,08,18,02,54,15.50
2014,08,18,02,55,15.50
2014,08,18,02,56,15.50
2014,08,18,02,57,15.50
2014,08,18,02,58,15.50
2014,08,18,02,59,15.50
2014,08,18,03,00,15.50
2014,08,18,03,01,15.50
2014,08,18,03,02,15.50
2014,08,18,03,03,15.50
2014,08,18,03,04,15.50
2014,08,18,03,05,15.50
2014,08,18,03,06,15.50
2014,08,18,03,07,15.50
2014,08,18,03,08,15.60
2014,08,18,03,09,15.60
2014,08,18,03,10,15.60
2014,08,18,03,11,15.60
2014,08,18,03,12,15.50
2014,08,18,03,13,15.50
2014,08,18,03,14,15.40
2014,08,18,03,15,15.30
2014,08,18,03,16,15.30
2014,08,18,03,17,15.30
2014,08,18,03,18,15.30
2014,08,18,03,19,15.30
2014,08,18,03,20,15.30
2014,08,18,03,21,15.30
2014,08,18,03,22,15.30
2014,08,18,03,23,15.30
2014,08,18,03,24,15.30
2014,08,18,03,25,15.30
2014,08,18,03,26,15.30
2014,08,18,03,27,15.30
2014,08,18,03,28,15.30
2014,08,18,03,29,15.30
2014,08,18,03,30,15.30
2014,08,18,03,31,15.30
2014,08,18,03,32,15.30
2014,08,18,03,33,15.30
2014,08,18,03,34,15.20
2014,08,18,03,35,15.20
2014,08,18,03,36,15.20
2014,08,18,03,37,15.20
2014,08,18,03,38,15.20
2014,08,18,03,39,15.20
2014,08,18,03,40,15.10
2014,08,18,03,41,15.10
2014,08,18,03,42,15.10
2014,08,18,03,43,15.10
2014,08,18,03,44,15.10
2014,08,18,03,45,15.10
2014,08,18,03,46,15.10
2014,08,18,03,47,15.10
2014,08,18,03,48,15.10
2014,08,18,03,49,15.10
2014,08,18,03,50,15.10
2014,08,18,03,51,15.10
2014,08,18,03,52,15.10
2014,08,18,03,53,15.10
2014,08,18,03,54,15.00
2014,08,18,03,55,15.00
2014,08,18,03,56,15.00
2014,08,18,03,57,14.90
2014,08,18,03,58,14.90
2014,08,18,03,59,14.90
2014,08,18,04,00,14.80
2014,08,18,04,01,14.80
2014,08,18,04,02,14.80
2014,08,18,04,03,14.70
2014,08,18,04,04,14.70
2014,08,18,04,05,14.70
2014,08,18,04,06,14.70
2014,08,18,04,07,14.70
2014,08,18,04,08,14.70
2014,08,18,04,09,14.70
2014,08,18,04,10,14.70
2014,08,18,04,11,14.60
2014,08,18,04,12,14.60
2014,08,18,04,13,14.60
2014,08,18,04,14,14.60
2014,08,18,04,15,14.60
2014,08,18,04,16,14.60
2014,08,18,04,17,14.60
2014,08,18,04,18,14.60
2014,08,18,04,19,14.60
2014,08,18,04,20,14.60
2014,08,18,04,21,14.60
2014,08,18,04,22,14.70
2014,08,18,04,23,14.70
2014,08,18,04,24,14.70
2014,08,18,04,25,14.70
2014,08,18,04,26,14.70
2014,08,18,04,27,14.70
2014,08,18,04,28,14.70
2014,08,18,04,29,14.60
2014,08,18,04,30,14.60
2014,08,18,04,31,14.60
2014,08,18,04,32,14.60
2014,08,18,04,33,14.60
2014,08,18,04,34,14.60
2014,08,18,04,35,14.60
2014,08,18,04,36,14.60
2014,08,18,04,37,14.60
2014,08,18,04,38,14.60
2014,08,18,04,39,14.70
2014,08,18,04,40,14.70
2014,08,18,04,41,14.70
2014,08,18,04,42,14.60
2014,08,18,04,43,14.60
2014,08,18,04,44,14.50
2014,08,18,04,45,14.50
2014,08,18,04,46,14.40
2014,08,18,04,47,14.40
2014,08,18,04,48,14.30
2014,08,18,04,49,14.30
2014,08,18,04,50,14.30
2014,08,18,04,51,14.30
2014,08,18,04,52,14.20
2014,08,18,04,53,14.20
2014,08,18,04,54,14.20
2014,08,18,04,55,14.20
2014,08,18,04,56,14.20
2014,08,18,04,57,14.20
2014,08,18,04,58,14.20
2014,08,18,04,59,14.20
2014,08,18,05,00,14.30
2014,08,18,05,01,14.30
2014,08,18,05,02,14.30
2014,08,18,05,03,14.30
2014,08,18,05,04,14.30
2014,08,18,05,05,14.30
2014,08,18,05,06,14.20
2014,08,18,05,07,14.20
2014,08,18,05,08,14.20
2014,08,18,05,09,14.20
2014,08,18,05,10,14.20
2014,08,18,05,11,14.20
2014,08,18,05,12,14.20
2014,08,18,05,13,14.20
2014,08,18,05,14,14.20
2014,08,18,05,15,14.20
2014,08,18,05,16,14.20
2014,08,18,05,17,14.20
2014,08,18,05,18,14.20
2014,08,18,05,19,14.20
2014,08,18,05,20,14.10
2014,08,18,05,21,14.10
2014,08,18,05,22,14.10
2014,08,18,05,23,14.10
2014,08,18,05,24,14.10
2014,08,18,05,25,14.10
2014,08,18,05,26,14.10
2014,08,18,05,27,14.10
2014,08,18,05,28,14.10
2014,08,18,05,29,14.10
2014,08,18,05,30,14.10
2014,08,18,05,31,14.10
2014,08,18,05,32,14.10
2014,08,18,05,33,14.10
2014,08,18,05,34,14.10
2014,08,18,05,35,14.10
2014,08,18,05,36,14.00
2014,08,18,05,37,14.00
2014,08,18,05,38,13.90
2014,08,18,05,39,13.90
2014,08,18,05,40,13.90
2014,08,18,05,41,13.80
2014,08,18,05,42,13.80
2014,08,18,05,43,13.80
2014,08,18,05,44,13.80
2014,08,18,05,45,13.80
2014,08,18,05,46,13.80
2014,08,18,05,47,13.90
2014,08,18,05,48,13.90
2014,08,18,05,49,13.90
2014,08,18,05,50,13.90
2014,08,18,05,51,13.90
2014,08,18,05,52,13.90
2014,08,18,05,53,14.00
2014,08,18,05,54,14.00
2014,08,18,05,55,14.10
2014,08,18,05,56,14.10
2014,08,18,05,57,14.10
2014,08,18,05,58,14.10
2014,08,18,05,59,14.20
2014,08,18,06,00,14.20
2014,08,18,06,01,14.20
2014,08,18,06,02,14.20
2014,08,18,06,03,14.20
2014,08,18,06,04,14.30
2014,08,18,06,05,14.30
2014,08,18,06,06,14.30
2014,08,18,06,07,14.30
2014,08,18,06,08,14.40
2014,08,18,06,09,14.40
2014,08,18,06,10,14.50
2014,08,18,06,11,14.50
2014,08,18,06,12,14.50
2014,08,18,06,13,14.60
2014,08,18,06,14,14.60
2014,08,18,06,15,14.60
2014,08,18,06,16,14.60
2014,08,18,06,17,14.60
2014,08,18,06,18,14.60
2014,08,18,06,19,14.70
2014,08,18,06,20,14.70
2014,08,18,06,21,14.70
2014,08,18,06,22,14.70
2014,08,18,06,23,14.70
2014,08,18,06,24,14.70
2014,08,18,06,25,14.70
2014,08,18,06,26,14.70
2014,08,18,06,27,14.70
2014,08,18,06,28,14.70
2014,08,18,06,29,14.80
2014,08,18,06,30,14.70
2014,08,18,06,31,14.70
2014,08,18,06,32,14.70
2014,08,18,06,33,14.70
2014,08,18,06,34,14.70
2014,08,18,06,35,14.70
2014,08,18,06,36,14.70
2014,08,18,06,37,14.70
2014,08,18,06,38,14.70
2014,08,18,06,39,14.70
2014,08,18,06,40,14.80
2014,08,18,06,41,14.80
2014,08,18,06,42,14.80
2014,08,18,06,43,14.80
2014,08,18,06,44,14.90
2014,08,18,06,45,14.90
2014,08,18,06,46,14.90
2014,08,18,06,47,14.90
2014,08,18,06,48,14.90
2014,08,18,06,49,15.00
2014,08,18,06,50,15.00
2014,08,18,06,51,15.00
2014,08,18,06,52,15.10
2014,08,18,06,53,15.10
2014,08,18,06,54,15.10
2014,08,18,06,55,15.10
2014,08,18,06,56,15.10
2014,08,18,06,57,15.20
2014,08,18,06,58,15.20
2014,08,18,06,59,15.20
2014,08,18,07,00,15.20
2014,08,18,07,01,15.20
2014,08,18,07,02,15.20
2014,08,18,07,03,15.20
2014,08,18,07,04,15.20
2014,08,18,07,05,15.30
2014,08,18,07,06,15.30
2014,08,18,07,07,15.30
2014,08,18,07,08,15.30
2014,08,18,07,09,15.30
2014,08,18,07,10,15.30
2014,08,18,07,11,15.40
2014,08,18,07,12,15.40
2014,08,18,07,13,15.50
2014,08,18,07,14,15.50
2014,08,18,07,15,15.60
2014,08,18,07,16,15.60
2014,08,18,07,17,15.60
2014,08,18,07,18,15.60
2014,08,18,07,19,15.60
2014,08,18,07,20,15.70
2014,08,18,07,21,15.70
2014,08,18,07,22,15.70
2014,08,18,07,23,15.70
2014,08,18,07,24,15.70
2014,08,18,07,25,15.70
2014,08,18,07,26,15.70
2014,08,18,07,27,15.80
2014,08,18,07,28,15.80
2014,08,18,07,29,15.80
2014,08,18,07,30,15.80
2014,08,18,07,31,15.80
2014,08,18,07,32,15.90
2014,08,18,07,33,15.90
2014,08,18,07,34,16.00
2014,08,18,07,35,16.10
2014,08,18,07,36,16.10
2014,08,18,07,37,16.20
2014,08,18,07,38,16.20
2014,08,18,07,39,16.30
2014,08,18,07,40,16.30
2014,08,18,07,41,16.30
2014,08,18,07,42,16.40
2014,08,18,07,43,16.40
2014,08,18,07,44,16.40
2014,08,18,07,45,16.40
2014,08,18,07,46,16.40
2014,08,18,07,47,16.40
2014,08,18,07,48,16.40
2014,08,18,07,49,16.50
2014,08,18,07,50,16.50
2014,08,18,07,51,16.50
2014,08,18,07,52,16.50
2014,08,18,07,53,16.60
2014,08,18,07,54,16.60
2014,08,18,07,55,16.60
2014,08,18,07,56,16.60
2014,08,18,07,57,16.60
2014,08,18,07,58,16.70
2014,08,18,07,59,16.70
2014,08,18,08,00,16.70
2014,08,18,08,01,16.70
2014,08,18,08,02,16.80
2014,08,18,08,03,16.80
2014,08,18,08,04,16.80
2014,08,18,08,05,16.80
2014,08,18,08,06,16.90
2014,08,18,08,07,16.90
2014,08,18,08,08,16.90
2014,08,18,08,09,17.00
2014,08,18,08,10,17.00
2014,08,18,08,11,17.00
2014,08,18,08,12,17.10
2014,08,18,08,13,17.10
2014,08,18,08,14,17.10
2014,08,18,08,15,17.10
2014,08,18,08,16,17.10
2014,08,18,08,17,17.20
2014,08,18,08,18,17.20
2014,08,18,08,19,17.20
2014,08,18,08,20,17.20
2014,08,18,08,21,17.20
2014,08,18,08,22,17.30
2014,08,18,08,23,17.30
2014,08,18,08,24,17.30
2014,08,18,08,25,17.30
2014,08,18,08,26,17.30
2014,08,18,08,27,17.40
2014,08,18,08,28,17.40
2014,08,18,08,29,17.40
2014,08,18,08,30,17.40
2014,08,18,08,31,17.50
2014,08,18,08,32,17.50
2014,08,18,08,33,17.50
2014,08,18,08,34,17.60
2014,08,18,08,35,17.60
2014,08,18,08,36,17.60
2014,08,18,08,37,17.60
2014,08,18,08,38,17.70
2014,08,18,08,39,17.70
2014,08,18,08,40,17.70
2014,08,18,08,41,17.70
2014,08,18,08,42,17.70
2014,08,18,08,43,17.70
2014,08,18,08,44,17.70
2014,08,18,08,45,17.70
2014,08,18,08,46,17.80
2014,08,18,08,47,17.80
2014,08,18,08,48,17.80
2014,08,18,08,49,17.80
2014,08,18,08,50,17.80
2014,08,18,08,51,17.80
2014,08,18,08,52,17.90
2014,08,18,08,53,17.90
2014,08,18,08,54,17.90
2014,08,18,08,55,17.90
2014,08,18,08,56,18.00
2014,08,18,08,57,18.00
2014,08,18,08,58,18.10
2014,08,18,08,59,18.10
2014,08,18,09,00,18.10
2014,08,18,09,01,18.10
2014,08,18,09,02,18.20
2014,08,18,09,03,18.20
2014,08,18,09,04,18.20
2014,08,18,09,05,18.20
2014,08,18,09,06,18.30
2014,08,18,09,07,18.30
2014,08,18,09,08,18.20
2014,08,18,09,09,18.10
2014,08,18,09,10,18.00
2014,08,18,09,11,17.90
2014,08,18,09,12,17.80
2014,08,18,09,13,17.70
2014,08,18,09,14,17.60
2014,08,18,09,15,17.50
2014,08,18,09,16,17.50
2014,08,18,09,17,17.40
2014,08,18,09,18,17.40
2014,08,18,09,19,17.40
2014,08,18,09,20,17.40
2014,08,18,09,21,17.40
2014,08,18,09,22,17.40
2014,08,18,09,23,17.50
2014,08,18,09,24,17.60
2014,08,18,09,25,17.60
2014,08,18,09,26,17.60
2014,08,18,09,27,17.60
2014,08,18,09,28,17.60
2014,08,18,09,29,17.60
2014,08,18,09,30,17.70
2014,08,18,09,31,17.70
2014,08,18,09,32,17.70
2014,08,18,09,33,17.70
2014,08,18,09,34,17.70
2014,08,18,09,35,17.70
2014,08,18,09,36,17.70
2014,08,18,09,37,17.70
2014,08,18,09,38,17.70
2014,08,18,09,39,17.70
2014,08,18,09,40,17.60
2014,08,18,09,41,17.60
2014,08,18,09,42,17.60
2014,08,18,09,43,17.50
2014,08,18,09,44,17.40
2014,08,18,09,45,17.40
2014,08,18,09,46,17.40
2014,08,18,09,47,17.40
2014,08,18,09,48,17.40
2014,08,18,09,49,17.40
2014,08,18,09,50,17.30
2014,08,18,09,51,17.30
2014,08,18,09,52,17.20
2014,08,18,09,53,17.10
2014,08,18,09,54,17.10
2014,08,18,09,55,17.10
2014,08,18,09,56,17.00
2014,08,18,09,57,17.00
2014,08,18,09,58,17.00
2014,08,18,09,59,17.00
2014,08,18,10,00,16.90
2014,08,18,10,01,16.90
2014,08,18,10,02,16.90
2014,08,18,10,03,17.00
2014,08,18,10,04,17.00
2014,08,18,10,05,17.00
2014,08,18,10,06,17.00
2014,08,18,10,07,17.10
2014,08,18,10,08,17.00
2014,08,18,10,09,17.00
2014,08,18,10,10,17.00
2014,08,18,10,11,17.00
2014,08,18,10,12,17.10
2014,08,18,10,13,17.10
2014,08,18,10,14,17.10
2014,08,18,10,15,17.20
2014,08,18,10,16,17.20
2014,08,18,10,17,17.20
2014,08,18,10,18,17.20
2014,08,18,10,19,17.20
2014,08,18,10,20,17.10
2014,08,18,10,21,17.10
2014,08,18,10,22,17.10
2014,08,18,10,23,17.10
2014,08,18,10,24,17.10
2014,08,18,10,25,17.10
2014,08,18,10,26,17.10
2014,08,18,10,27,17.10
2014,08,18,10,28,17.10
2014,08,18,10,29,17.20
2014,08,18,10,30,17.20
2014,08,18,10,31,17.20
2014,08,18,10,32,17.30
2014,08,18,10,33,17.20
2014,08,18,10,34,17.20
2014,08,18,10,35,17.20
2014,08,18,10,36,17.20
2014,08,18,10,37,17.20
2014,08,18,10,38,17.10
2014,08,18,10,39,17.10
2014,08,18,10,40,17.10
2014,08,18,10,41,17.20
2014,08,18,10,42,17.20
2014,08,18,10,43,17.20
2014,08,18,10,44,17.20
2014,08,18,10,45,17.20
2014,08,18,10,46,17.30
2014,08,18,10,47,17.30
2014,08,18,10,48,17.40
2014,08,18,10,49,17.50
2014,08,18,10,50,17.60
2014,08,18,10,51,17.70
2014,08,18,10,52,17.80
2014,08,18,10,53,17.90
2014,08,18,10,54,18.00
2014,08,18,10,55,18.10
2014,08,18,10,56,18.20
2014,08,18,10,57,18.40
2014,08,18,10,58,18.50
2014,08,18,10,59,18.60
2014,08,18,11,00,18.70
2014,08,18,11,01,18.90
2014,08,18,11,02,19.00
2014,08,18,11,03,19.10
2014,08,18,11,04,19.10
2014,08,18,11,05,19.00
2014,08,18,11,06,18.90
2014,08,18,11,07,18.80
2014,08,18,11,08,18.70
2014,08,18,11,09,18.80
2014,08,18,11,10,18.80
2014,08,18,11,11,18.80
2014,08,18,11,12,18.80
2014,08,18,11,13,18.90
2014,08,18,11,14,19.00
2014,08,18,11,15,19.00
2014,08,18,11,16,19.10
2014,08,18,11,17,19.00
2014,08,18,11,18,18.90
2014,08,18,11,19,18.90
2014,08,18,11,20,18.80
2014,08,18,11,21,18.80
2014,08,18,11,22,18.80
2014,08,18,11,23,18.80
2014,08,18,11,24,18.80
2014,08,18,11,25,18.80
2014,08,18,11,26,18.80
2014,08,18,11,27,18.80
2014,08,18,11,28,18.70
2014,08,18,11,29,18.70
2014,08,18,11,30,18.80
2014,08,18,11,31,18.80
2014,08,18,11,32,19.00
2014,08,18,11,33,19.10
2014,08,18,11,34,19.30
2014,08,18,11,35,19.40
2014,08,18,11,36,19.50
2014,08,18,11,37,19.70
2014,08,18,11,38,19.80
2014,08,18,11,39,19.90
2014,08,18,11,40,20.00
2014,08,18,11,41,20.10
2014,08,18,11,42,20.20
2014,08,18,11,43,20.30
2014,08,18,11,44,20.40
2014,08,18,11,45,20.40
2014,08,18,11,46,20.50
2014,08,18,11,47,20.60
2014,08,18,11,48,20.60
2014,08,18,11,49,20.60
2014,08,18,11,50,20.70
2014,08,18,11,51,20.70
2014,08,18,11,52,20.80
2014,08,18,11,53,20.90
2014,08,18,11,54,20.90
2014,08,18,11,55,21.00
2014,08,18,11,56,21.00
2014,08,18,11,57,21.10
2014,08,18,11,58,21.10
2014,08,18,11,59,21.10
2014,08,18,12,00,21.10
2014,08,18,12,01,21.00
2014,08,18,12,02,20.90
2014,08,18,12,03,20.80
2014,08,18,12,04,20.60
2014,08,18,12,05,20.40
2014,08,18,12,06,20.30
2014,08,18,12,07,20.10
2014,08,18,12,08,20.00
2014,08,18,12,09,19.90
2014,08,18,12,10,19.90
2014,08,18,12,11,19.90
2014,08,18,12,12,19.90
2014,08,18,12,13,20.00
2014,08,18,12,14,20.00
2014,08,18,12,15,20.10
2014,08,18,12,16,20.10
2014,08,18,12,17,20.10
2014,08,18,12,18,20.20
2014,08,18,12,19,20.20
2014,08,18,12,20,20.30
2014,08,18,12,21,20.30
2014,08,18,12,22,20.40
2014,08,18,12,23,20.50
2014,08,18,12,24,20.60
2014,08,18,12,25,20.70
2014,08,18,12,26,20.80
2014,08,18,12,27,20.90
2014,08,18,12,28,21.00
2014,08,18,12,29,21.10
2014,08,18,12,30,21.30
2014,08,18,12,31,21.40
2014,08,18,12,32,21.50
2014,08,18,12,33,21.60
2014,08,18,12,34,21.70
2014,08,18,12,35,21.80
2014,08,18,12,36,21.80
2014,08,18,12,37,21.90
2014,08,18,12,38,21.90
2014,08,18,12,39,21.90
2014,08,18,12,40,21.90
2014,08,18,12,41,21.90
2014,08,18,12,42,21.90
2014,08,18,12,43,22.00
2014,08,18,12,44,22.10
2014,08,18,12,45,22.10
2014,08,18,12,46,22.20
2014,08,18,12,47,22.30
2014,08,18,12,48,22.40
2014,08,18,12,49,22.50
2014,08,18,12,50,22.60
2014,08,18,12,51,22.70
2014,08,18,12,52,22.70
2014,08,18,12,53,22.70
2014,08,18,12,54,22.60
2014,08,18,12,55,22.60
2014,08,18,12,56,22.50
2014,08,18,12,57,22.50
2014,08,18,12,58,22.50
2014,08,18,12,59,22.50
2014,08,18,13,00,22.50
2014,08,18,13,01,22.60
2014,08,18,13,02,22.60
2014,08,18,13,03,22.60
2014,08,18,13,04,22.70
2014,08,18,13,05,22.70
2014,08,18,13,06,22.70
2014,08,18,13,07,22.80
2014,08,18,13,08,22.90
2014,08,18,13,09,22.90
2014,08,18,13,10,23.00
2014,08,18,13,11,23.00
2014,08,18,13,12,23.00
2014,08,18,13,13,23.00
2014,08,18,13,14,22.90
2014,08,18,13,15,22.90
2014,08,18,13,16,22.90
2014,08,18,13,17,22.90
2014,08,18,13,18,22.90
2014,08,18,13,19,22.90
2014,08,18,13,20,22.90
2014,08,18,13,21,22.90
2014,08,18,13,22,22.90
2014,08,18,13,23,22.80
2014,08,18,13,24,22.70
2014,08,18,13,25,22.60
2014,08,18,13,26,22.50
2014,08,18,13,27,22.30
2014,08,18,13,28,22.10
2014,08,18,13,29,21.90
2014,08,18,13,30,21.80
2014,08,18,13,31,21.80
2014,08,18,13,32,21.70
2014,08,18,13,33,21.70
2014,08,18,13,34,21.70
2014,08,18,13,35,21.70
2014,08,18,13,36,21.70
2014,08,18,13,37,21.80
2014,08,18,13,38,21.80
2014,08,18,13,39,21.90
2014,08,18,13,40,21.90
2014,08,18,13,41,21.90
2014,08,18,13,42,22.00
2014,08,18,13,43,22.00
2014,08,18,13,44,22.00
2014,08,18,13,45,22.00
2014,08,18,13,46,22.00
2014,08,18,13,47,22.00
2014,08,18,13,48,22.10
2014,08,18,13,49,22.10
2014,08,18,13,50,22.20
2014,08,18,13,51,22.30
2014,08,18,13,52,22.30
2014,08,18,13,53,22.40
2014,08,18,13,54,22.50
2014,08,18,13,55,22.60
2014,08,18,13,56,22.70
2014,08,18,13,57,22.80
2014,08,18,13,58,22.90
2014,08,18,13,59,23.00
2014,08,18,14,00,23.10
2014,08,18,14,01,23.30
2014,08,18,14,02,23.30
2014,08,18,14,03,23.40
2014,08,18,14,04,23.50
2014,08,18,14,05,23.50
2014,08,18,14,06,23.50
2014,08,18,14,07,23.50
2014,08,18,14,08,23.50
2014,08,18,14,09,23.40
2014,08,18,14,10,23.30
2014,08,18,14,11,23.20
2014,08,18,14,12,23.00
2014,08,18,14,13,22.80
2014,08,18,14,14,22.70
2014,08,18,14,15,22.70
2014,08,18,14,16,22.60
2014,08,18,14,17,22.60
2014,08,18,14,18,22.60
2014,08,18,14,19,22.60
2014,08,18,14,20,22.60
2014,08,18,14,21,22.60
2014,08,18,14,22,22.70
2014,08,18,14,23,22.70
2014,08,18,14,24,22.60
2014,08,18,14,25,22.60
2014,08,18,14,26,22.60
2014,08,18,14,27,22.60
2014,08,18,14,28,22.60
2014,08,18,14,29,22.60
2014,08,18,14,30,22.70
2014,08,18,14,31,22.70
2014,08,18,14,32,22.70
2014,08,18,14,33,22.80
2014,08,18,14,34,22.80
2014,08,18,14,35,22.80
2014,08,18,14,36,22.80
2014,08,18,14,37,22.80
2014,08,18,14,38,22.70
2014,08,18,14,39,22.70
2014,08,18,14,40,22.70
2014,08,18,14,41,22.70
2014,08,18,14,42,22.80
2014,08,18,14,43,22.70
2014,08,18,14,44,22.70
2014,08,18,14,45,22.70
2014,08,18,14,46,22.80
2014,08,18,14,47,22.80
2014,08,18,14,48,22.90
2014,08,18,14,49,22.90
2014,08,18,14,50,23.00
2014,08,18,14,51,23.10
2014,08,18,14,52,23.20
2014,08,18,14,53,23.30
2014,08,18,14,54,23.40
2014,08,18,14,55,23.50
2014,08,18,14,56,23.60
2014,08,18,14,57,23.70
2014,08,18,14,58,23.80
2014,08,18,14,59,23.90
2014,08,18,15,00,24.00
2014,08,18,15,01,24.00
2014,08,18,15,02,24.00
2014,08,18,15,03,24.10
2014,08,18,15,04,24.10
2014,08,18,15,05,24.10
2014,08,18,15,06,24.20
2014,08,18,15,07,24.20
2014,08,18,15,08,24.30
2014,08,18,15,09,24.30
2014,08,18,15,10,24.40
2014,08,18,15,11,24.50
2014,08,18,15,12,24.50
2014,08,18,15,13,24.60
2014,08,18,15,14,24.70
2014,08,18,15,15,24.70
2014,08,18,15,16,24.80
2014,08,18,15,17,24.80
2014,08,18,15,18,24.80
2014,08,18,15,19,24.80
2014,08,18,15,20,24.80
2014,08,18,15,21,24.80
2014,08,18,15,22,24.80
2014,08,18,15,23,24.70
2014,08,18,15,24,24.70
2014,08,18,15,25,24.70
2014,08,18,15,26,24.60
2014,08,18,15,27,24.60
2014,08,18,15,28,24.60
2014,08,18,15,29,24.70
2014,08,18,15,30,24.60
2014,08,18,15,31,24.60
2014,08,18,15,32,24.60
2014,08,18,15,33,24.60
2014,08,18,15,34,24.60
2014,08,18,15,35,24.60
2014,08,18,15,36,24.60
2014,08,18,15,37,24.60
2014,08,18,15,38,24.60
2014,08,18,15,39,24.60
2014,08,18,15,40,24.70
2014,08,18,15,41,24.70
2014,08,18,15,42,24.80
2014,08,18,15,43,24.80
2014,08,18,15,44,24.70
2014,08,18,15,45,24.70
2014,08,18,15,46,24.60
2014,08,18,15,47,24.50
2014,08,18,15,48,24.50
2014,08,18,15,49,24.40
2014,08,18,15,50,24.40
2014,08,18,15,51,24.30
2014,08,18,15,52,24.30
2014,08,18,15,53,24.30
2014,08,18,15,54,24.30
2014,08,18,15,55,24.30
2014,08,18,15,56,24.30
2014,08,18,15,57,24.40
2014,08,18,15,58,24.40
2014,08,18,15,59,24.40
2014,08,18,16,00,24.40
2014,08,18,16,01,24.40
2014,08,18,16,02,24.40
2014,08,18,16,03,24.40
2014,08,18,16,04,24.40
2014,08,18,16,05,24.40
2014,08,18,16,06,24.50
2014,08,18,16,07,24.60
2014,08,18,16,08,24.70
2014,08,18,16,09,24.80
2014,08,18,16,10,24.90
2014,08,18,16,11,25.00
2014,08,18,16,12,25.10
2014,08,18,16,13,25.10
2014,08,18,16,14,25.20
2014,08,18,16,15,25.40
2014,08,18,16,16,25.50
2014,08,18,16,17,25.60
2014,08,18,16,18,25.60
2014,08,18,16,19,25.70
2014,08,18,16,20,25.60
2014,08,18,16,21,25.50
2014,08,18,16,22,25.30
2014,08,18,16,23,25.20
2014,08,18,16,24,25.20
2014,08,18,16,25,25.30
2014,08,18,16,26,25.50
2014,08,18,16,27,25.60
2014,08,18,16,28,25.80
2014,08,18,16,29,25.90
2014,08,18,16,30,26.00
2014,08,18,16,31,26.00
2014,08,18,16,32,26.10
2014,08,18,16,33,26.10
2014,08,18,16,34,26.10
2014,08,18,16,35,26.10
2014,08,18,16,36,26.00
2014,08,18,16,37,25.90
2014,08,18,16,38,25.90
2014,08,18,16,39,25.90
2014,08,18,16,40,25.90
2014,08,18,16,41,25.90
2014,08,18,16,42,25.90
2014,08,18,16,43,25.90
2014,08,18,16,44,25.90
2014,08,18,16,45,25.90
2014,08,18,16,46,25.90
2014,08,18,16,47,25.90
2014,08,18,16,48,25.90
2014,08,18,16,49,25.80
2014,08,18,16,50,25.80
2014,08,18,16,51,25.80
2014,08,18,16,52,25.70
2014,08,18,16,53,25.70
2014,08,18,16,54,25.70
2014,08,18,16,55,25.70
2014,08,18,16,56,25.60
2014,08,18,16,57,25.60
2014,08,18,16,58,25.60
2014,08,18,16,59,25.60
2014,08,18,17,00,25.60
2014,08,18,17,01,25.60
2014,08,18,17,02,25.50
2014,08,18,17,03,25.50
2014,08,18,17,04,25.50
2014,08,18,17,05,25.50
2014,08,18,17,06,25.50
2014,08,18,17,07,25.60
2014,08,18,17,08,25.60
2014,08,18,17,09,25.60
2014,08,18,17,10,25.60
2014,08,18,17,11,25.70
2014,08,18,17,12,25.70
2014,08,18,17,13,25.60
2014,08,18,17,14,25.60
2014,08,18,17,15,25.60
2014,08,18,17,16,25.50
2014,08,18,17,17,25.40
2014,08,18,17,18,25.20
2014,08,18,17,19,25.10